FW2834 Weather Reports


time (UTC)temp
C
wind
direction
speed
KPH
gust
KPH
rain 1hr
cm
rain 24hr
cm
rain mn
cm
humidity
%
barometer
mb
20260503190019 18 268 3.2 9.7 0.00 0.00 0.00 31 1015.8
20260503185519 18 275 1.6 9.7 0.00 0.00 0.00 30 1015.8
20260503185019 17 78 0.0 8.0 0.00 0.00 0.00 33 1016.2
20260503184532 17 82 1.6 11.3 0.00 0.00 0.00 32 1016.2
20260503184017 17 130 1.6 6.4 0.00 0.00 0.00 32 1016.4
20260503183516 17 82 0.0 6.4 0.00 0.00 0.00 32 1016.3
20260503183015 17 89 1.6 6.4 0.00 0.00 0.00 29 1016.4
20260503182515 18 194 0.0 6.4 0.00 0.00 0.00 29 1016.4
20260503182014 18 262 1.6 17.7 0.00 0.00 0.00 29 1016.6
20260503181513 18 271 4.8 17.7 0.00 0.00 0.00 28 1016.6
20260503181013 18 98 0.0 4.8 0.00 0.00 0.00 33 1016.6
20260503180512 18 206 1.6 12.9 0.00 0.00 0.00 31 1016.6
20260503180021 18 227 3.2 12.9 0.00 0.00 0.00 28 1016.7
20260503175511 18 321 1.6 12.9 0.00 0.00 0.00 31 1016.7
20260503175013 18 128 1.6 12.9 0.00 0.00 0.00 30 1016.8
20260503174511 18 23 1.6 8.0 0.00 0.00 0.00 31 1016.8
20260503174012 17 215 3.2 8.0 0.00 0.00 0.00 30 1016.8
20260503173510 17 259 3.2 17.7 0.00 0.00 0.00 29 1016.9
20260503173009 17 136 8.0 17.7 0.00 0.00 0.00 26 1017.0
20260503172512 18 279 1.6 12.9 0.00 0.00 0.00 30 1017.3
20260503172007 18 161 3.2 12.9 0.00 0.00 0.00 27 1017.4
20260503171506 18 140 1.6 4.8 0.00 0.00 0.00 32 1017.5
20260503171005 18 41 1.6 11.3 0.00 0.00 0.00 33 1017.6
20260503170505 18 312 0.0 4.8 0.00 0.00 0.00 33 1017.7
20260503150537 14 262 3.2 9.7 0.00 0.00 0.00 37 1019.0
20260503131003 5 313 1.6 4.8 0.00 0.00 0.00 73 1019.2
20260503130501 5 278 0.0 1.6 0.00 0.00 0.00 74 1019.3
20260503120103 1 11 0.0 0.0 0.00 0.00 0.00 75 1019.1
20260503110541 0 11 0.0 0.0 0.00 0.00 0.00 72 1018.6
20260503081530 1 11 0.0 0.0 0.00 0.00 0.00 71 1017.9
20260503081029 1 11 0.0 0.0 0.00 0.00 0.00 71 1017.8
20260503080529 1 11 0.0 0.0 0.00 0.00 0.00 70 1017.9
20260503072527 1 11 0.0 0.0 0.00 0.00 0.00 70 1017.7
20260503072026 1 11 0.0 0.0 0.00 0.00 0.00 70 1017.8
20260503071526 1 11 0.0 0.0 0.00 0.00 0.00 70 1017.7
20260503071026 1 11 0.0 0.0 0.00 0.00 0.00 70 1017.8
20260503070524 1 11 0.0 0.0 0.00 0.00 0.00 70 1017.8
20260503055017 1 11 0.0 0.0 0.00 0.00 0.00 69 1018.1
20260503054524 1 11 0.0 0.0 0.00 0.00 0.00 68 1018.2
20260503054018 1 11 0.0 0.0 0.00 0.00 0.00 69 1018.1
20260503053516 2 11 0.0 0.0 0.00 0.00 0.00 68 1018.1
20260503053016 2 11 0.0 0.0 0.00 0.00 0.00 68 1018.1
20260503052519 2 11 0.0 0.0 0.00 0.00 0.00 68 1018.2
20260503052015 2 11 0.0 0.0 0.00 0.00 0.00 68 1018.1
20260503051514 2 11 0.0 0.0 0.00 0.00 0.00 68 1018.2
20260503051013 2 11 0.0 0.0 0.00 0.00 0.00 68 1018.2
20260503050513 2 11 0.0 0.0 0.00 0.00 0.00 67 1018.2
20260503050013 2 11 0.0 0.0 0.00 0.00 0.00 67 1018.2
20260503045512 2 11 0.0 0.0 0.00 0.00 0.00 67 1018.2
20260503045012 2 11 0.0 0.0 0.00 0.00 0.00 67 1018.2
20260503044511 2 11 0.0 0.0 0.00 0.00 0.00 66 1018.1
20260503044011 2 11 0.0 0.0 0.00 0.00 0.00 66 1018.2
20260503043510 2 11 0.0 0.0 0.00 0.00 0.00 66 1018.3
20260503043010 2 11 0.0 0.0 0.00 0.00 0.00 66 1018.3
20260503042509 2 11 0.0 0.0 0.00 0.00 0.00 66 1018.1
20260503042009 2 11 0.0 0.0 0.00 0.00 0.00 65 1018.1
20260503041511 2 11 0.0 0.0 0.00 0.00 0.00 65 1018.2
20260503041010 3 11 0.0 0.0 0.00 0.00 0.00 65 1018.1
20260503040507 3 11 0.0 0.0 0.00 0.00 0.00 65 1018.1
20260503040005 3 11 0.0 0.0 0.00 0.00 0.00 65 1018.2
20260503035508 3 11 0.0 0.0 0.00 0.00 0.00 65 1018.1
20260503035006 3 11 0.0 0.0 0.00 0.00 0.00 64 1018.1
20260503034515 3 11 0.0 0.0 0.00 0.00 0.00 64 1018.2
20260503034010 3 11 0.0 0.0 0.00 0.00 0.00 64 1018.2
20260503033506 3 11 0.0 0.0 0.00 0.00 0.00 63 1018.1
20260503033007 3 11 0.0 0.0 0.00 0.00 0.00 63 1018.1
20260503032505 3 11 0.0 0.0 0.00 0.00 0.00 63 1018.2
20260503032004 3 11 0.0 0.0 0.00 0.00 0.00 62 1018.1
20260503031504 4 11 0.0 0.0 0.00 0.00 0.00 62 1018.2
20260503031004 4 11 0.0 0.0 0.00 0.00 0.00 61 1018.1
20260503030504 4 11 0.0 0.0 0.00 0.00 0.00 61 1018.1
20260503030003 4 11 0.0 0.0 0.00 0.00 0.00 60 1018.1
20260503025503 4 11 0.0 0.0 0.00 0.00 0.00 60 1018.2
20260503025003 5 11 0.0 0.0 0.00 0.00 0.00 59 1018.2
20260503024506 5 11 0.0 0.0 0.00 0.00 0.00 59 1018.2
20260503024003 5 11 0.0 0.0 0.00 0.00 0.00 58 1018.2
20260503023501 5 11 0.0 0.0 0.00 0.00 0.00 58 1018.1
20260503023002 5 11 0.0 0.0 0.00 0.00 0.00 57 1018.1
20260503022501 5 11 0.0 0.0 0.00 0.00 0.00 56 1018.0
20260503022003 5 11 0.0 0.0 0.00 0.00 0.00 56 1018.0
20260503021501 6 11 0.0 0.0 0.00 0.00 0.00 56 1018.0
20260503021100 6 11 0.0 0.0 0.00 0.00 0.00 55 1017.9
20260503020600 6 11 0.0 0.0 0.00 0.00 0.00 54 1017.8
20260503020104 6 11 0.0 0.0 0.00 0.00 0.00 54 1017.8
20260503015600 6 11 0.0 0.0 0.00 0.00 0.00 54 1017.8
20260503015059 6 11 0.0 0.0 0.00 0.00 0.00 53 1017.8
20260503014624 7 11 0.0 0.0 0.00 0.00 0.00 52 1017.7
20260503014059 7 11 0.0 0.0 0.00 0.00 0.00 52 1017.7
20260503013558 7 11 0.0 0.0 0.00 0.00 0.00 52 1017.6
20260503013059 7 11 0.0 0.0 0.00 0.00 0.00 51 1017.6
20260503012559 7 11 0.0 0.0 0.00 0.00 0.00 50 1017.5
20260503012058 7 11 0.0 0.0 0.00 0.00 0.00 49 1017.5
20260503011557 7 11 0.0 0.0 0.00 0.00 0.00 49 1017.5
20260503011057 7 11 0.0 0.0 0.00 0.00 0.00 49 1017.3
20260503010558 8 11 0.0 0.0 0.00 0.00 0.00 49 1017.3
20260503010058 8 11 0.0 0.0 0.00 0.00 0.00 48 1017.3
20260503005558 8 11 0.0 0.0 0.00 0.00 0.00 48 1017.3
20260503005100 8 11 0.0 0.0 0.00 0.00 0.00 48 1017.2
20260503004700 8 11 0.0 0.0 0.00 0.00 0.00 47 1017.2
20260503004056 8 11 0.0 1.6 0.00 0.00 0.00 48 1017.1
20260503003556 8 11 0.0 1.6 0.00 0.00 0.00 47 1017.1
20260503003058 9 11 0.0 0.0 0.00 0.00 0.00 47 1017.1
20260503002556 9 11 0.0 0.0 0.00 0.00 0.00 48 1017.1
20260503002056 9 11 0.0 0.0 0.00 0.00 0.00 46 1017.0
20260503001556 9 11 0.0 0.0 0.00 0.00 0.00 46 1017.0
20260503001057 9 11 0.0 3.2 0.00 0.00 0.00 45 1016.9
20260503000555 10 11 0.0 3.2 0.00 0.00 0.00 45 1016.8
20260503000056 10 11 0.0 4.8 0.00 0.00 0.00 44 1016.8
20260502235555 10 11 0.0 4.8 0.00 0.00 0.00 42 1016.7
20260502235055 10 12 0.0 4.8 0.00 0.00 0.00 41 1016.6
20260502234556 10 29 1.6 4.8 0.00 0.00 0.00 42 1016.5
20260502234055 10 331 0.0 3.2 0.00 0.00 0.00 43 1016.4
20260502233554 10 331 0.0 4.8 0.00 0.00 0.00 39 1016.3
20260502233102 10 331 1.6 4.8 0.00 0.00 0.00 40 1016.3
20260502232554 10 335 1.6 4.8 0.00 0.00 0.00 42 1016.3
20260502232054 10 335 0.0 4.8 0.00 0.00 0.00 42 1016.3
20260502231605 10 335 0.0 4.8 0.00 0.00 0.00 40 1016.4
20260502231054 10 339 0.0 3.2 0.00 0.00 0.00 37 1016.3
20260502230554 10 328 0.0 4.8 0.00 0.00 0.00 37 1016.4
20260502230053 11 328 1.6 6.4 0.00 0.00 0.00 37 1016.4
20260502225553 11 327 1.6 6.4 0.00 0.00 0.00 38 1016.3
20260502225052 11 304 3.2 6.4 0.00 0.00 0.00 38 1016.3
20260502224553 11 322 0.0 6.4 0.00 0.00 0.00 40 1016.3
20260502224052 11 321 1.6 6.4 0.00 0.00 0.00 37 1016.3
20260502223552 11 28 1.6 6.4 0.00 0.00 0.00 42 1016.2
20260502223052 11 331 0.0 4.8 0.00 0.00 0.00 38 1016.3
20260502222552 11 331 0.0 4.8 0.00 0.00 0.00 39 1016.2
20260502222056 11 320 0.0 4.8 0.00 0.00 0.00 40 1016.2
20260502221551 11 321 0.0 4.8 0.00 0.00 0.00 39 1016.1
20260502221051 11 342 0.0 3.2 0.00 0.00 0.00 39 1016.2
20260502220551 11 342 0.0 3.2 0.00 0.00 0.00 38 1016.1
20260502220100 11 342 0.0 3.2 0.00 0.00 0.00 37 1016.1
20260502215551 11 343 0.0 4.8 0.00 0.00 0.00 36 1016.1
20260502215050 11 344 1.6 9.7 0.00 0.00 0.00 39 1016.1
20260502214550 12 351 1.6 9.7 0.00 0.00 0.00 36 1016.0
20260502214051 12 307 0.0 3.2 0.00 0.00 0.00 38 1015.8
20260502213550 12 307 0.0 3.2 0.00 0.00 0.00 37 1015.8
20260502213051 12 306 0.0 6.4 0.00 0.00 0.00 35 1015.8
20260502212549 12 306 1.6 6.4 0.00 0.00 0.00 37 1015.8
20260502212049 12 328 1.6 6.4 0.00 0.00 0.00 36 1015.9
20260502211550 12 288 1.6 6.4 0.00 0.00 0.00 35 1016.0
20260502211051 12 63 1.6 6.4 0.00 0.00 0.00 34 1015.7
20260502210549 12 67 1.6 6.4 0.00 0.00 0.00 34 1015.8
20260502210058 12 31 1.6 4.8 0.00 0.00 0.00 34 1015.8
20260502205548 12 355 0.0 3.2 0.00 0.00 0.00 36 1015.8
20260502205050 12 355 0.0 9.7 0.00 0.00 0.00 37 1015.7
20260502204548 12 322 1.6 9.7 0.00 0.00 0.00 35 1015.8
20260502204148 12 328 0.0 4.8 0.00 0.00 0.00 36 1015.6
20260502203547 12 329 1.6 8.0 0.00 0.00 0.00 35 1015.7
20260502203050 12 355 1.6 6.4 0.00 0.00 0.00 35 1015.6
20260502202545 12 335 1.6 4.8 0.00 0.00 0.00 38 1015.8
20260502202045 12 334 1.6 4.8 0.00 0.00 0.00 32 1015.9
20260502201546 13 317 1.6 4.8 0.00 0.00 0.00 34 1016.0
20260502201045 13 319 0.0 8.0 0.00 0.00 0.00 31 1016.0
20260502200544 13 34 1.6 8.0 0.00 0.00 0.00 33 1015.9
20260502200044 13 54 1.6 6.4 0.00 0.00 0.00 33 1016.0
20260502195543 13 304 1.6 6.4 0.00 0.00 0.00 32 1015.9
20260502195044 13 321 1.6 8.0 0.00 0.00 0.00 31 1016.0
20260502194543 14 34 1.6 8.0 0.00 0.00 0.00 32 1016.0
20260502194041 14 325 1.6 11.3 0.00 0.00 0.00 35 1016.1
20260502193642 13 319 1.6 11.3 0.00 0.00 0.00 33 1016.2
20260502193041 14 9 1.6 8.0 0.00 0.00 0.00 35 1016.1
20260502192543 14 311 1.6 8.0 0.00 0.00 0.00 32 1016.3
20260502192038 14 319 0.0 6.4 0.00 0.00 0.00 34 1016.3
20260502191539 14 315 3.2 6.4 0.00 0.00 0.00 32 1016.4
20260502191036 14 316 0.0 8.0 0.00 0.00 0.00 36 1016.4
20260502190537 13 317 3.2 8.0 0.00 0.00 0.00 32 1016.5